Location: Unspecified
(0.0000°N, 0.0000°E)
Time: 22:59:15
(UTC+00:00)

ISS - Pass Details

Date: 21 July 2019
Orbit: 409 x 418 km, 51.6° (Epoch: 23 July)

Event Time Altitude Azimuth Distance (km) Brightness Sun altitude
Exits shadow 05:12:25 - 309° (NW) 1,862 -0.8 -12.6°
Reaches altitude 10° 05:13:26 10° 305° (NW) 1,461 -1.3 -12.4°
Maximum altitude 05:16:31 38° 235° (SW) 636 -3.3 -11.7°
Drops below altitude 10° 05:19:37 10° 164° (SSE) 1,469 -1.0 -11.0°
Sets 05:21:47 0° 156° (SSE) 2,333 0.1 -10.4°
